Location: Dunedin
(45.8900°S, 170.5000°E)
Time: 13:14:26
(UTC+12:00)

ISS - Pass Details

Date: 19 April 2024
Orbit: 409 x 414 km, 51.6° (Epoch: 20 May)

Event Time Altitude Azimuth Distance (km) Brightness Sun altitude
Rises 18:33:39 0° 305° (NW) 2,391 1.4 -7.5°
Reaches altitude 10° 18:35:45 10° 307° (NW) 1,531 0.2 -7.9°
Maximum altitude 18:39:11 72° 31° (NNE) 461 -3.7 -8.5°
Enters shadow 18:42:25 12° 115° (ESE) 1,448 -1.6 -9.1°
